TimeCDT,TemperatureF,Dew PointF,Humidity,Sea Level PressureIn,VisibilityMPH,Wind Direction,Wind SpeedMPH,Gust SpeedMPH,PrecipitationIn,Events,Conditions,WindDirDegrees,DateUTC
12:53 AM,32.0,28.0,85,30.15,10.0,Calm,Calm,-,N/A,,Clear,0,2012-10-30 05:53:00
2:53 AM,30.0,28.9,96,30.14,10.0,WSW,3.5,-,N/A,,Clear,250,2012-10-30 07:53:00
3:53 AM,28.0,26.1,92,30.13,10.0,Calm,Calm,-,N/A,,Clear,0,2012-10-30 08:53:00
4:53 AM,27.0,26.1,96,30.14,10.0,Calm,Calm,-,N/A,,Clear,0,2012-10-30 09:53:00
5:53 AM,27.0,25.0,92,30.13,10.0,Calm,Calm,-,N/A,,Clear,0,2012-10-30 10:53:00
6:53 AM,27.0,25.0,92,30.13,10.0,Calm,Calm,-,N/A,,Clear,0,2012-10-30 11:53:00
7:53 AM,30.0,27.0,88,30.14,10.0,Calm,Calm,-,N/A,,Clear,0,2012-10-30 12:53:00
8:53 AM,43.0,35.1,74,30.14,10.0,Calm,Calm,-,N/A,,Clear,0,2012-10-30 13:53:00
9:53 AM,53.1,36.0,52,30.14,10.0,Calm,Calm,-,N/A,,Clear,0,2012-10-30 14:53:00
10:53 AM,59.0,36.0,42,30.14,10.0,Variable,5.8,-,N/A,,Clear,0,2012-10-30 15:53:00
11:53 AM,63.0,36.0,37,30.13,10.0,Variable,5.8,-,N/A,,Clear,0,2012-10-30 16:53:00
1:53 PM,68.0,36.0,31,30.06,10.0,West,6.9,-,N/A,,Clear,280,2012-10-30 18:53:00
2:53 PM,66.9,35.1,31,30.03,10.0,West,6.9,-,N/A,,Clear,270,2012-10-30 19:53:00
3:53 PM,69.1,34.0,27,30.02,10.0,WNW,5.8,-,N/A,,Clear,300,2012-10-30 20:53:00
4:53 PM,66.9,35.1,31,30.00,10.0,WSW,4.6,-,N/A,,Clear,240,2012-10-30 21:53:00
5:53 PM,63.0,35.1,35,30.01,10.0,West,4.6,-,N/A,,Clear,270,2012-10-30 22:53:00
6:53 PM,48.0,36.0,63,30.02,10.0,West,3.5,-,N/A,,Clear,260,2012-10-30 23:53:00
7:53 PM,45.0,37.0,74,30.03,10.0,Calm,Calm,-,N/A,,Clear,0,2012-10-31 00:53:00
8:53 PM,41.0,36.0,82,30.04,10.0,Calm,Calm,-,N/A,,Clear,0,2012-10-31 01:53:00
9:53 PM,41.0,37.0,86,30.03,10.0,Calm,Calm,-,N/A,,Clear,0,2012-10-31 02:53:00
10:53 PM,39.9,36.0,86,30.03,10.0,Calm,Calm,-,N/A,,Clear,0,2012-10-31 03:53:00
11:53 PM,37.9,35.1,89,30.03,10.0,Calm,Calm,-,N/A,,Clear,0,2012-10-31 04:53:00